ARG1934 SAEZ-SACO

Flight info

Callsign ARG1934
Flight time 1h 7m
Altitude 28000
Route ATOVO3A ATOVO UW5 ASISA ASISA1Q
Aircraft B738/M-SDE2E3FGHIRWXY/LB1

Departure

Time 2026-05-06 05:14
Airport Ezeiza International Airport - Ministro Pistarini (SAEZ)

Arrival

Time 2026-05-06 06:21
Airport Ingeniero Aeronáutico Ambrosio L.V. Taravella International Airport (SACO)
Time Latitude Longitude Altitude Speed Heading
2026-05-06 04:29 -34.81026 -58.53705 74 ft 0 kts 253°
2026-05-06 04:59 -34.81025 -58.53698 74 ft 3 kts 253°
2026-05-06 04:59 -34.81019 -58.53674 66 ft 3 kts 253°
2026-05-06 04:59 -34.81014 -58.53650 64 ft 3 kts 254°
2026-05-06 04:59 -34.81008 -58.53627 64 ft 2 kts 254°
2026-05-06 05:00 -34.81003 -58.53607 75 ft 3 kts 231°
2026-05-06 05:00 -34.80989 -58.53595 64 ft 3 kts 181°
2026-05-06 05:00 -34.80970 -58.53598 65 ft 2 kts 164°
2026-05-06 05:00 -34.80964 -58.53600 67 ft 0 kts 164°
2026-05-06 05:06 -34.80967 -58.53599 66 ft 2 kts 164°
2026-05-06 05:06 -34.81015 -58.53583 73 ft 11 kts 164°
2026-05-06 05:06 -34.81091 -58.53556 72 ft 11 kts 165°
2026-05-06 05:06 -34.81158 -58.53512 70 ft 11 kts 122°
2026-05-06 05:07 -34.81166 -58.53421 77 ft 11 kts 94°
2026-05-06 05:07 -34.81172 -58.53332 82 ft 10 kts 99°
2026-05-06 05:07 -34.81218 -58.53263 84 ft 13 kts 154°
2026-05-06 05:07 -34.81332 -58.53221 85 ft 19 kts 163°
2026-05-06 05:08 -34.81462 -58.53184 84 ft 19 kts 182°
2026-05-06 05:08 -34.81582 -58.53245 77 ft 18 kts 214°
2026-05-06 05:08 -34.81674 -58.53350 72 ft 18 kts 225°
2026-05-06 05:08 -34.81760 -58.53455 73 ft 17 kts 225°
2026-05-06 05:09 -34.81844 -58.53556 69 ft 17 kts 225°
2026-05-06 05:09 -34.81847 -58.53664 72 ft 16 kts 334°
2026-05-06 05:09 -34.81748 -58.53717 71 ft 15 kts 333°
2026-05-06 05:09 -34.81700 -58.53824 74 ft 15 kts 268°
2026-05-06 05:10 -34.81742 -58.53935 70 ft 14 kts 238°
2026-05-06 05:10 -34.81788 -58.54037 71 ft 14 kts 252°
2026-05-06 05:10 -34.81788 -58.54148 74 ft 13 kts 280°
2026-05-06 05:10 -34.81776 -58.54255 71 ft 13 kts 276°
2026-05-06 05:11 -34.81764 -58.54360 68 ft 12 kts 278°
2026-05-06 05:11 -34.81753 -58.54463 70 ft 12 kts 276°
2026-05-06 05:11 -34.81764 -58.54604 74 ft 21 kts 255°
2026-05-06 05:11 -34.81778 -58.54767 66 ft 19 kts 278°
2026-05-06 05:12 -34.81749 -58.54923 69 ft 19 kts 283°
2026-05-06 05:12 -34.81721 -58.55075 69 ft 18 kts 282°
2026-05-06 05:12 -34.81695 -58.55220 72 ft 17 kts 282°
2026-05-06 05:12 -34.81747 -58.55337 71 ft 17 kts 201°
2026-05-06 05:13 -34.81857 -58.55301 74 ft 22 kts 146°
2026-05-06 05:13 -34.81988 -58.54897 74 ft 86 kts 100°
2026-05-06 05:13 -34.82155 -58.53944 85 ft 142 kts 101°
2026-05-06 05:13 -34.82367 -58.52655 447 ft 157 kts 100°
2026-05-06 05:14 -34.82647 -58.51365 1041 ft 163 kts 112°
2026-05-06 05:14 -34.83425 -58.50306 1591 ft 181 kts 142°
2026-05-06 05:14 -34.84714 -58.49742 1900 ft 212 kts 173°
2026-05-06 05:14 -34.86173 -58.50227 2232 ft 234 kts 214°
2026-05-06 05:15 -34.87133 -58.51877 2531 ft 248 kts 257°
2026-05-06 05:15 -34.87077 -58.53981 3014 ft 253 kts 291°
2026-05-06 05:15 -34.86031 -58.55710 3458 ft 262 kts 325°
2026-05-06 05:15 -34.84476 -58.56901 4216 ft 265 kts 330°
2026-05-06 05:16 -34.82872 -58.58024 5072 ft 265 kts 329°
2026-05-06 05:16 -34.81273 -58.59148 5914 ft 267 kts 329°
2026-05-06 05:16 -34.79648 -58.60301 6595 ft 274 kts 330°
2026-05-06 05:16 -34.77987 -58.61496 7278 ft 278 kts 329°
2026-05-06 05:17 -34.76333 -58.62705 8163 ft 275 kts 328°
2026-05-06 05:17 -34.74694 -58.63914 8909 ft 279 kts 328°
2026-05-06 05:17 -34.73020 -58.65157 9594 ft 284 kts 328°
2026-05-06 05:17 -34.71331 -58.66417 10269 ft 289 kts 328°
2026-05-06 05:18 -34.69553 -58.67746 10478 ft 312 kts 328°
2026-05-06 05:18 -34.67643 -58.69178 10648 ft 333 kts 328°
2026-05-06 05:18 -34.65614 -58.70700 10886 ft 350 kts 328°
2026-05-06 05:18 -34.63524 -58.72269 11407 ft 356 kts 327°
2026-05-06 05:19 -34.61414 -58.73852 12076 ft 358 kts 327°
2026-05-06 05:19 -34.59290 -58.75445 12745 ft 359 kts 327°
2026-05-06 05:19 -34.57162 -58.77041 13403 ft 362 kts 327°
2026-05-06 05:19 -34.55001 -58.78661 14023 ft 366 kts 326°
2026-05-06 05:20 -34.52825 -58.80292 14628 ft 369 kts 326°
2026-05-06 05:20 -34.50641 -58.81927 15293 ft 370 kts 326°
2026-05-06 05:20 -34.48441 -58.83573 15963 ft 372 kts 326°
2026-05-06 05:20 -34.46231 -58.85226 16609 ft 374 kts 326°
2026-05-06 05:21 -34.44032 -58.86870 17222 ft 377 kts 326°
2026-05-06 05:21 -34.41791 -58.88544 17847 ft 380 kts 326°
2026-05-06 05:21 -34.39540 -58.90224 18422 ft 382 kts 325°
2026-05-06 05:21 -34.37259 -58.91926 18953 ft 385 kts 325°
2026-05-06 05:22 -34.34968 -58.93635 19489 ft 387 kts 325°
2026-05-06 05:22 -34.32664 -58.95352 20028 ft 390 kts 324°
2026-05-06 05:22 -34.30347 -58.97077 20554 ft 392 kts 324°
2026-05-06 05:22 -34.28016 -58.98811 21086 ft 395 kts 324°
2026-05-06 05:23 -34.25697 -59.00617 21578 ft 395 kts 318°
2026-05-06 05:23 -34.23715 -59.02852 22036 ft 394 kts 308°
2026-05-06 05:23 -34.20585 -59.08254 22996 ft 394 kts 299°
2026-05-06 05:24 -34.19133 -59.11075 23478 ft 397 kts 299°
2026-05-06 05:24 -34.18146 -59.12991 23803 ft 396 kts 299°
2026-05-06 05:24 -34.16709 -59.15770 24387 ft 392 kts 298°
2026-05-06 05:24 -34.15267 -59.18546 25051 ft 387 kts 298°
2026-05-06 05:25 -34.13841 -59.21282 25666 ft 384 kts 298°
2026-05-06 05:25 -34.12412 -59.24017 26228 ft 382 kts 298°
2026-05-06 05:25 -34.10994 -59.26729 26784 ft 381 kts 298°
2026-05-06 05:25 -34.09583 -59.29422 27384 ft 378 kts 298°
2026-05-06 05:26 -34.08180 -59.32097 27924 ft 377 kts 298°
2026-05-06 05:26 -34.06787 -59.34752 27906 ft 373 kts 298°
2026-05-06 05:26 -34.05402 -59.37388 27946 ft 373 kts 298°
2026-05-06 05:26 -34.04006 -59.40046 27942 ft 375 kts 298°
2026-05-06 05:27 -34.02623 -59.42676 27950 ft 375 kts 298°
2026-05-06 05:27 -34.01228 -59.45327 27948 ft 375 kts 298°
2026-05-06 05:27 -33.99825 -59.47991 27945 ft 376 kts 298°
2026-05-06 05:27 -33.98428 -59.50642 27946 ft 376 kts 298°
2026-05-06 05:28 -33.97025 -59.53300 27939 ft 376 kts 298°
2026-05-06 05:28 -33.95623 -59.55954 27936 ft 375 kts 298°
2026-05-06 05:28 -33.94220 -59.58610 27937 ft 375 kts 298°
2026-05-06 05:28 -33.92822 -59.61253 27933 ft 374 kts 298°
2026-05-06 05:29 -33.91420 -59.63902 27937 ft 374 kts 298°
2026-05-06 05:29 -33.90021 -59.66544 27933 ft 373 kts 298°
2026-05-06 05:29 -33.88623 -59.69180 27934 ft 373 kts 298°
2026-05-06 05:29 -33.87230 -59.71807 27933 ft 372 kts 298°
2026-05-06 05:30 -33.85841 -59.74426 27935 ft 372 kts 298°
2026-05-06 05:30 -33.84451 -59.77042 27936 ft 371 kts 298°
2026-05-06 05:30 -33.83059 -59.79660 27933 ft 371 kts 298°
2026-05-06 05:30 -33.81671 -59.82271 27936 ft 371 kts 298°
2026-05-06 05:31 -33.80278 -59.84888 27931 ft 371 kts 298°
2026-05-06 05:31 -33.78887 -59.87500 27931 ft 371 kts 298°
2026-05-06 05:31 -33.77497 -59.90108 27917 ft 371 kts 298°
2026-05-06 05:31 -33.76105 -59.92718 27925 ft 371 kts 298°
2026-05-06 05:32 -33.74725 -59.95303 27929 ft 371 kts 298°
2026-05-06 05:32 -33.73331 -59.97912 27928 ft 371 kts 298°
2026-05-06 05:32 -33.71939 -60.00517 27926 ft 371 kts 298°
2026-05-06 05:32 -33.70543 -60.03127 27926 ft 371 kts 298°
2026-05-06 05:33 -33.69146 -60.05735 27928 ft 371 kts 298°
2026-05-06 05:33 -33.67752 -60.08339 27922 ft 371 kts 298°
2026-05-06 05:33 -33.66353 -60.10946 27924 ft 371 kts 298°
2026-05-06 05:33 -33.64956 -60.13551 27924 ft 371 kts 298°
2026-05-06 05:34 -33.63539 -60.16190 27925 ft 371 kts 298°
2026-05-06 05:34 -33.62140 -60.18794 27910 ft 371 kts 298°
2026-05-06 05:34 -33.60761 -60.21359 27918 ft 371 kts 298°
2026-05-06 05:34 -33.59362 -60.23959 27918 ft 370 kts 298°
2026-05-06 05:35 -33.57964 -60.26555 27915 ft 370 kts 298°
2026-05-06 05:35 -33.56567 -60.29147 27914 ft 370 kts 298°
2026-05-06 05:35 -33.55170 -60.31739 27915 ft 369 kts 298°
2026-05-06 05:35 -33.53775 -60.34324 27915 ft 369 kts 298°
2026-05-06 05:36 -33.52381 -60.36905 27917 ft 369 kts 298°
2026-05-06 05:36 -33.50990 -60.39479 27916 ft 369 kts 298°
2026-05-06 05:36 -33.49595 -60.42060 27915 ft 369 kts 298°
2026-05-06 05:36 -33.48201 -60.44637 27911 ft 369 kts 298°
2026-05-06 05:37 -33.46803 -60.47220 27906 ft 368 kts 298°
2026-05-06 05:37 -33.45406 -60.49798 27910 ft 368 kts 298°
2026-05-06 05:37 -33.44012 -60.52368 27906 ft 368 kts 298°
2026-05-06 05:37 -33.42636 -60.54903 27905 ft 368 kts 298°
2026-05-06 05:38 -33.41241 -60.57474 27911 ft 368 kts 298°
2026-05-06 05:38 -33.39843 -60.60046 27904 ft 368 kts 298°
2026-05-06 05:38 -33.38440 -60.62626 27901 ft 368 kts 298°
2026-05-06 05:38 -33.37051 -60.65179 27907 ft 367 kts 298°
2026-05-06 05:39 -33.35655 -60.67742 27905 ft 367 kts 298°
2026-05-06 05:39 -33.34263 -60.70297 27906 ft 367 kts 298°
2026-05-06 05:39 -33.32863 -60.72865 27906 ft 367 kts 298°
2026-05-06 05:39 -33.31468 -60.75421 27893 ft 367 kts 298°
2026-05-06 05:40 -33.30074 -60.77974 27909 ft 367 kts 298°
2026-05-06 05:40 -33.28680 -60.80525 27909 ft 367 kts 298°
2026-05-06 05:40 -33.27284 -60.83078 27894 ft 366 kts 298°
2026-05-06 05:40 -33.25890 -60.85624 27904 ft 366 kts 298°
2026-05-06 05:41 -33.24495 -60.88172 27890 ft 366 kts 298°
2026-05-06 05:41 -33.23102 -60.90714 27896 ft 366 kts 298°
2026-05-06 05:41 -33.21708 -60.93257 27888 ft 366 kts 298°
2026-05-06 05:41 -33.20312 -60.95801 27904 ft 365 kts 298°
2026-05-06 05:42 -33.18921 -60.98335 27888 ft 365 kts 299°
2026-05-06 05:42 -33.17526 -61.00873 27900 ft 365 kts 299°
2026-05-06 05:42 -33.16129 -61.03415 27884 ft 365 kts 299°
2026-05-06 05:42 -33.14737 -61.05945 27894 ft 365 kts 299°
2026-05-06 05:43 -33.13346 -61.08471 27890 ft 364 kts 299°
2026-05-06 05:43 -33.11953 -61.11000 27887 ft 364 kts 299°
2026-05-06 05:43 -33.10561 -61.13525 27886 ft 364 kts 299°
2026-05-06 05:43 -33.09172 -61.16044 27893 ft 364 kts 299°
2026-05-06 05:44 -33.07781 -61.18563 27893 ft 363 kts 299°
2026-05-06 05:44 -33.06391 -61.21079 27889 ft 363 kts 299°
2026-05-06 05:44 -33.04999 -61.23597 27887 ft 363 kts 299°
2026-05-06 05:44 -33.03611 -61.26107 27886 ft 363 kts 299°
2026-05-06 05:45 -33.02219 -61.28622 27888 ft 363 kts 299°
2026-05-06 05:45 -33.00825 -61.31138 27886 ft 363 kts 299°
2026-05-06 05:45 -32.99431 -61.33652 27893 ft 363 kts 299°
2026-05-06 05:45 -32.98037 -61.36165 27893 ft 364 kts 299°
2026-05-06 05:46 -32.96639 -61.38686 27888 ft 365 kts 299°
2026-05-06 05:46 -32.95241 -61.41201 27887 ft 365 kts 299°
2026-05-06 05:46 -32.93845 -61.43713 27882 ft 365 kts 299°
2026-05-06 05:46 -32.92445 -61.46231 27885 ft 366 kts 299°
2026-05-06 05:47 -32.91041 -61.48754 27881 ft 366 kts 299°
2026-05-06 05:47 -32.89630 -61.51286 27881 ft 367 kts 299°
2026-05-06 05:47 -32.88218 -61.53820 27890 ft 367 kts 299°
2026-05-06 05:47 -32.86807 -61.56349 27889 ft 367 kts 299°
2026-05-06 05:48 -32.85396 -61.58877 27880 ft 367 kts 299°
2026-05-06 05:48 -32.83987 -61.61400 27881 ft 367 kts 300°
2026-05-06 05:48 -32.82575 -61.63927 27868 ft 366 kts 299°
2026-05-06 05:48 -32.81171 -61.66437 27871 ft 364 kts 299°
2026-05-06 05:49 -32.79770 -61.68940 27873 ft 363 kts 299°
2026-05-06 05:49 -32.78370 -61.71438 27877 ft 362 kts 299°
2026-05-06 05:49 -32.76991 -61.73899 27878 ft 361 kts 299°
2026-05-06 05:49 -32.75583 -61.76411 27880 ft 360 kts 299°
2026-05-06 05:50 -32.74213 -61.78851 27882 ft 359 kts 299°
2026-05-06 05:50 -32.72826 -61.81323 27882 ft 359 kts 299°
2026-05-06 05:50 -32.71439 -61.83791 27883 ft 359 kts 299°
2026-05-06 05:50 -32.70051 -61.86261 27881 ft 359 kts 299°
2026-05-06 05:51 -32.68662 -61.88730 27883 ft 359 kts 299°
2026-05-06 05:51 -32.67276 -61.91193 27884 ft 360 kts 299°
2026-05-06 05:51 -32.65885 -61.93663 27871 ft 360 kts 300°
2026-05-06 05:51 -32.64490 -61.96137 27880 ft 360 kts 300°
2026-05-06 05:52 -32.63099 -61.98603 27882 ft 360 kts 300°
2026-05-06 05:52 -32.61708 -62.01068 27882 ft 360 kts 300°
2026-05-06 05:52 -32.60315 -62.03535 27881 ft 360 kts 300°
2026-05-06 05:52 -32.58922 -62.05998 27882 ft 360 kts 300°
2026-05-06 05:53 -32.57530 -62.08461 27883 ft 360 kts 300°
2026-05-06 05:53 -32.56133 -62.10928 27881 ft 359 kts 300°
2026-05-06 05:53 -32.54741 -62.13387 27882 ft 359 kts 300°
2026-05-06 05:53 -32.53350 -62.15841 27883 ft 359 kts 300°
2026-05-06 05:54 -32.51956 -62.18300 27882 ft 359 kts 300°
2026-05-06 05:54 -32.50562 -62.20756 27882 ft 359 kts 300°
2026-05-06 05:54 -32.49167 -62.23215 27873 ft 359 kts 300°
2026-05-06 05:54 -32.47773 -62.25668 27880 ft 358 kts 300°
2026-05-06 05:55 -32.46378 -62.28122 27880 ft 358 kts 300°
2026-05-06 05:55 -32.44988 -62.30564 27881 ft 358 kts 300°
2026-05-06 05:55 -32.43595 -62.33012 27879 ft 357 kts 300°
2026-05-06 05:55 -32.42224 -62.35419 27882 ft 357 kts 300°
2026-05-06 05:56 -32.40822 -62.37878 27883 ft 357 kts 300°
2026-05-06 05:56 -32.39449 -62.40285 27882 ft 357 kts 300°
2026-05-06 05:56 -32.38039 -62.42755 27884 ft 357 kts 300°
2026-05-06 05:56 -32.36652 -62.45184 27882 ft 357 kts 300°
2026-05-06 05:57 -32.35259 -62.47623 27880 ft 357 kts 300°
2026-05-06 05:57 -32.33866 -62.50058 27884 ft 357 kts 300°
2026-05-06 05:57 -32.32476 -62.52489 27858 ft 357 kts 300°
2026-05-06 05:57 -32.31088 -62.54912 27891 ft 357 kts 301°
2026-05-06 05:58 -32.29695 -62.57345 27886 ft 357 kts 301°
2026-05-06 05:58 -32.28331 -62.59723 27880 ft 357 kts 301°
2026-05-06 05:58 -32.27384 -62.61373 27882 ft 357 kts 301°
2026-05-06 05:58 -32.25994 -62.63796 27883 ft 357 kts 301°
2026-05-06 05:59 -32.24600 -62.66224 27881 ft 357 kts 301°
2026-05-06 05:59 -32.23204 -62.68653 27883 ft 357 kts 301°
2026-05-06 05:59 -32.21821 -62.71056 27869 ft 348 kts 301°
2026-05-06 05:59 -32.20487 -62.73368 27806 ft 337 kts 301°
2026-05-06 06:00 -32.19179 -62.75637 27521 ft 329 kts 301°
2026-05-06 06:00 -32.17895 -62.77866 27146 ft 327 kts 301°
2026-05-06 06:00 -32.16623 -62.80074 26782 ft 323 kts 301°
2026-05-06 06:00 -32.15362 -62.82260 26366 ft 321 kts 301°
2026-05-06 06:01 -32.14110 -62.84432 25999 ft 319 kts 301°
2026-05-06 06:01 -32.12868 -62.86585 25596 ft 317 kts 301°
2026-05-06 06:01 -32.11628 -62.88733 25204 ft 316 kts 301°
2026-05-06 06:01 -32.10394 -62.90869 24797 ft 315 kts 301°
2026-05-06 06:02 -32.09158 -62.93007 24398 ft 315 kts 301°
2026-05-06 06:02 -32.07925 -62.95139 24006 ft 315 kts 302°
2026-05-06 06:02 -32.06689 -62.97274 23600 ft 315 kts 302°
2026-05-06 06:02 -32.05453 -62.99408 23162 ft 315 kts 302°
2026-05-06 06:03 -32.04221 -63.01535 22760 ft 314 kts 302°
2026-05-06 06:03 -32.02993 -63.03650 22359 ft 312 kts 302°
2026-05-06 06:03 -32.01767 -63.05762 21971 ft 310 kts 302°
2026-05-06 06:03 -32.00554 -63.07852 21590 ft 309 kts 302°
2026-05-06 06:04 -31.99341 -63.09940 21213 ft 307 kts 302°
2026-05-06 06:04 -31.98139 -63.12008 20842 ft 306 kts 302°
2026-05-06 06:04 -31.96939 -63.14071 20469 ft 304 kts 302°
2026-05-06 06:04 -31.95746 -63.16121 20104 ft 303 kts 302°
2026-05-06 06:05 -31.94556 -63.18167 19741 ft 302 kts 302°
2026-05-06 06:05 -31.93368 -63.20205 19367 ft 302 kts 302°
2026-05-06 06:05 -31.92181 -63.22242 18997 ft 301 kts 302°
2026-05-06 06:05 -31.90995 -63.24277 18619 ft 301 kts 302°
2026-05-06 06:06 -31.89812 -63.26306 18253 ft 301 kts 302°
2026-05-06 06:06 -31.88627 -63.28334 17850 ft 300 kts 303°
2026-05-06 06:06 -31.87447 -63.30356 17467 ft 299 kts 303°
2026-05-06 06:06 -31.86270 -63.32371 17094 ft 298 kts 303°
2026-05-06 06:07 -31.85098 -63.34375 16727 ft 297 kts 303°
2026-05-06 06:07 -31.83926 -63.36379 16355 ft 296 kts 303°
2026-05-06 06:07 -31.82760 -63.38370 15999 ft 295 kts 304°
2026-05-06 06:07 -31.81597 -63.40358 15648 ft 294 kts 304°
2026-05-06 06:08 -31.80438 -63.42335 15291 ft 294 kts 304°
2026-05-06 06:08 -31.79278 -63.44314 14933 ft 294 kts 304°
2026-05-06 06:08 -31.78118 -63.46293 14568 ft 294 kts 304°
2026-05-06 06:08 -31.76960 -63.48267 14211 ft 294 kts 304°
2026-05-06 06:09 -31.75794 -63.50252 13840 ft 294 kts 304°
2026-05-06 06:09 -31.74630 -63.52234 13444 ft 295 kts 305°
2026-05-06 06:09 -31.73472 -63.54206 13077 ft 294 kts 305°
2026-05-06 06:09 -31.72308 -63.56184 12704 ft 294 kts 305°
2026-05-06 06:10 -31.71150 -63.58152 12336 ft 293 kts 305°
2026-05-06 06:10 -31.69991 -63.60123 11964 ft 293 kts 306°
2026-05-06 06:10 -31.68828 -63.62098 11583 ft 294 kts 306°
2026-05-06 06:10 -31.67668 -63.64066 11228 ft 293 kts 306°
2026-05-06 06:11 -31.66504 -63.66041 10848 ft 294 kts 306°
2026-05-06 06:11 -31.65340 -63.68014 10474 ft 294 kts 306°
2026-05-06 06:11 -31.64180 -63.69981 10256 ft 289 kts 306°
2026-05-06 06:11 -31.63049 -63.71898 10124 ft 281 kts 306°
2026-05-06 06:12 -31.61954 -63.73754 10007 ft 272 kts 307°
2026-05-06 06:12 -31.60887 -63.75560 9808 ft 269 kts 307°
2026-05-06 06:12 -31.59819 -63.77365 9513 ft 267 kts 307°
2026-05-06 06:12 -31.58761 -63.79154 9214 ft 267 kts 307°
2026-05-06 06:13 -31.57706 -63.80937 8906 ft 266 kts 307°
2026-05-06 06:13 -31.56652 -63.82716 8587 ft 266 kts 307°
2026-05-06 06:13 -31.55597 -63.84497 8275 ft 266 kts 307°
2026-05-06 06:13 -31.54540 -63.86281 7953 ft 266 kts 308°
2026-05-06 06:14 -31.53480 -63.88068 7624 ft 267 kts 308°
2026-05-06 06:14 -31.52420 -63.89856 7292 ft 268 kts 308°
2026-05-06 06:14 -31.51345 -63.91667 6964 ft 269 kts 308°
2026-05-06 06:14 -31.50277 -63.93466 6635 ft 270 kts 308°
2026-05-06 06:15 -31.49204 -63.95274 6306 ft 271 kts 308°
2026-05-06 06:15 -31.48124 -63.97092 5948 ft 271 kts 308°
2026-05-06 06:15 -31.47033 -63.98929 5651 ft 270 kts 308°
2026-05-06 06:15 -31.45991 -64.00682 5526 ft 261 kts 308°
2026-05-06 06:16 -31.44968 -64.02403 5394 ft 254 kts 309°
2026-05-06 06:16 -31.43985 -64.04086 5280 ft 247 kts 303°
2026-05-06 06:16 -31.43483 -64.06026 5159 ft 247 kts 279°
2026-05-06 06:16 -31.43434 -64.08016 4919 ft 245 kts 273°
2026-05-06 06:17 -31.43454 -64.09959 4628 ft 234 kts 273°
2026-05-06 06:17 -31.43469 -64.11881 4115 ft 232 kts 273°
2026-05-06 06:17 -31.43479 -64.13711 3913 ft 219 kts 273°
2026-05-06 06:17 -31.43441 -64.15447 3769 ft 199 kts 284°
2026-05-06 06:18 -31.42814 -64.16750 3699 ft 183 kts 315°
2026-05-06 06:18 -31.41811 -64.17658 3485 ft 178 kts 331°
2026-05-06 06:18 -31.40780 -64.18364 3249 ft 163 kts 331°
2026-05-06 06:18 -31.39845 -64.19005 3033 ft 152 kts 331°
2026-05-06 06:19 -31.38906 -64.19651 2856 ft 154 kts 331°
2026-05-06 06:19 -31.37971 -64.20296 2635 ft 156 kts 331°
2026-05-06 06:19 -31.36967 -64.20709 2455 ft 153 kts 354°
2026-05-06 06:19 -31.35895 -64.20774 2262 ft 155 kts 360°
2026-05-06 06:20 -31.34822 -64.20780 2095 ft 154 kts
2026-05-06 06:20 -31.33759 -64.20794 1892 ft 152 kts 359°
2026-05-06 06:20 -31.32705 -64.20810 1700 ft 151 kts 359°
2026-05-06 06:20 -31.31676 -64.20824 1618 ft 134 kts 359°
2026-05-06 06:21 -31.30900 -64.20838 1616 ft 82 kts 359°
2026-05-06 06:21 -31.30552 -64.20842 1613 ft 19 kts 360°
2026-05-06 06:21 -31.30474 -64.20849 1612 ft 6 kts 248°
2026-05-06 06:21 -31.30526 -64.20848 1618 ft 12 kts 170°
2026-05-06 06:22 -31.30664 -64.20839 1612 ft 27 kts 179°
2026-05-06 06:22 -31.30900 -64.20838 1616 ft 38 kts 179°
2026-05-06 06:22 -31.31140 -64.20835 1618 ft 33 kts 179°
2026-05-06 06:22 -31.31359 -64.20830 1616 ft 25 kts 179°
2026-05-06 06:23 -31.31465 -64.20880 1617 ft 16 kts 251°
2026-05-06 06:23 -31.31466 -64.20979 1612 ft 7 kts 269°
2026-05-06 06:23 -31.31471 -64.21036 1612 ft 7 kts 260°
2026-05-06 06:23 -31.31463 -64.21087 1614 ft 7 kts 315°
2026-05-06 06:24 -31.31441 -64.21104 1612 ft 2 kts 316°
2026-05-06 06:24 -31.31437 -64.21114 1612 ft 2 kts 291°
2026-05-06 06:24 -31.31435 -64.21138 1612 ft 5 kts 270°
2026-05-06 06:24 -31.31435 -64.21170 1612 ft 2 kts 269°
2026-05-06 06:25 -31.31436 -64.21179 1612 ft 1 kts 268°
2026-05-06 06:25 -31.31436 -64.21181 1612 ft 0 kts 268°